Cloud_Cover
4 0 0 0 0 0 0 1 100 100 27 65 42 15 10 5 5 5 5 5 5 1 0 0 2 5 2 27 14 0 0 1 0 42 1 0 5 10 0 0 0 0 13
59 37 30 49 0 0 0 0 9 5 5 29 64 86 41 90 99 100 90 5 5 5 4 3 3 5 9 5 5 5 0 0 0 0 0 0 0 1 0 0 0 0 0
61 2 7 26 0 0 0 0 0 46 98 91 97 94 90 96 53 58 75 86 8 9 41 6 6 6 5 5 34 5 5 0 0 0 3 85 98 44 0 0 0 0 0
0 60 2 16 1 1 4 0 0 4 5 19 52 57 45 65 40 83 99 100 91 58 5 6 7 5 11 6 60 5 5 4 0 1 10 5 96 37 0 0 0 0 12
15 100 17 14 23 24 5 0 0 0 3 29 45 75 100 94 85 100 40 81 42 98 100 96 98 90 99 96 92 37 5 5 5 5 5 5 49 27 4 4 5 0 0
0 1 68 21 2 2 21 0 0 0 0 0 5 5 5 56 100 100 100 100 72 22 97 100 100 100 100 100 59 13 30 62 31 5 7 27 87 7 5 5 5 4 2
12 0 0 7 2 1 13 40 4 0 0 0 0 0 0 5 100 100 100 100 100 92 3 7 62 5 5 10 9 63 78 44 33 69 66 96 95 7 5 5 5 4 2
2 0 0 0 7 97 100 100 100 66 0 0 0 0 0 18 100 100 100 88 27 5 5 5 3 1 0 1 3 16 45 100 100 87 50 15 59 98 96 12 6 5 5
0 0 0 0 0 0 20 82 100 100 99 46 0 0 0 1 5 12 28 5 5 1 5 6 6 13 0 0 0 3 4 92 92 100 56 22 5 11 6 20 7 6 5
0 0 0 0 0 0 0 0 0 0 99 95 1 75 1 3 0 5 5 3 1 4 4 5 6 0 2 0 0 0 0 0 0 5 7 52 56 7 5 9 52 6 5
0 0 0 0 0 0 0 0 0 0 0 0 22 85 13 64 92 35 13 0 0 5 5 5 5 7 52 6 5 2 12 3 1 0 12 30 66 37 6 5 5 5 5
0 0 0 0 0 0 0 0 0 0 0 0 0 0 24 56 91 100 60 8 0 0 0 1 5 5 44 83 74 16 5 70 18 0 0 0 0 5 6 5 5 5 3
0 0 0 0 0 0 0 0 0 0 0 0 0 0 0 0 4 75 66 86 60 60 49 58 25 8 19 97 64 100 20 0 5 5 5 0 0 0 0 0 0 1 0
0 0 0 3 2 0 0 0 0 0 0 0 0 0 0 0 0 0 0 30 98 91 97 100 99 100 99 93 85 100 100 57 1 0 0 3 3 0 4 0 0 0 1
2 0 0 0 0 0 0 0 0 0 0 0 0 0 0 0 0 0 0 0 17 97 92 44 96 100 99 44 61 100 100 100 100 50 3 0 0 0 0 2 5 4 0
2 0 2 0 0 0 0 0 0 0 0 0 0 0 0 0 0 0 0 0 0 19 78 86 62 100 100 100 100 71 18 95 100 100 87 42 1 0 0 0 4 5 14
5 5 5 5 4 0 0 0 0 0 0 0 0 0 0 0 0 0 0 0 0 0 1 43 48 60 100 100 100 100 100 87 89 100 89 99 71 3 5 5 4 1 5
100 70 6 5 1 0 0 0 0 0 0 0 0 0 0 0 0 0 0 0 0 0 0 0 39 98 76 99 100 100 100 100 100 98 88 100 100 38 5 5 44 20 13
5 5 5 3 1 1 2 1 1 1 2 2 3 1 0 0 0 0 0 0 0 0 0 0 0 0 12 38 100 93 90 56 81 82 100 100 100 98 64 49 72 17 20
3 5 3 3 5 5 14 53 9 18 25 33 34 30 20 1 0 0 0 0 0 0 0 0 0 0 0 0 14 63 54 22 59 65 93 100 100 100 100 100 100 100 86
0 0 0 0 0 5 76 98 89 64 38 47 64 59 26 0 0 0 0 0 0 0 0 0 0 0 0 0 0 0 0 7 23 33 9 70 97 54 100 100 100 100 100
0 0 0 0 0 14 45 55 98 100 95 100 100 97 73 46 42 16 38 28 7 2 0 0 0 0 0 0 0 0 0 0 0 2 37 93 92 95 96 100 94 93 100
0 0 0 0 0 10 24 38 36 67 98 100 100 100 100 100 100 100 100 100 84 84 48 20 6 4 18 5 1 10 3 0 0 1 15 81 100 98 97 100 100 71 82
0 0 0 0 0 0 9 20 53 100 100 100 100 100 100 100 100 100 100 100 100 100 100 100 94 87 91 62 72 62 8 41 21 0 0 11 4 35 47 100 98 91 100
0 0 0 0 0 0 0 2 38 36 75 84 86 98 100 100 95 93 73 69 82 95 93 100 100 100 99 67 98 31 61 88 99 28 19 0 0 0 0 44 98 100 100
0 0 0 0 0 0 0 0 0 0 8 8 9 36 56 84 100 92 64 78 100 100 100 100 100 100 100 100 100 100 48 61 35 66 12 18 15 0 2 2 15 74 71